• în România
  • Lista ţărilor
  • Pe 7 zile
  • Temperatura apei
  • Hartă satelitară
  • Meteo pe hartă
  • Widget-uri
  • user-avatar
    Intrare

    Meteo pe oră la Milochow

    Astăzi, 23 Octombrie, Marţi

    Timp Temperatura Precipitaţii Vânt Presiune Umiditate
    00:00 +5°C° 0 mm 3 m/s 749 mmHg 89%
    01:00 +4°C° 0 mm 2 m/s 749 mmHg 91%
    02:00 +4°C° 0 mm 2 m/s 749 mmHg 90%
    03:00 +3°C° 0 mm 3 m/s 748 mmHg 89%
    04:00 +3°C° 0 mm 3 m/s 748 mmHg 88%
    05:00 +3°C° 0 mm 3 m/s 747 mmHg 86%
    06:00 +4°C° 0 mm 4 m/s 746 mmHg 84%
    07:00 +3°C° 0 mm 5 m/s 745 mmHg 82%
    08:00 +4°C° 0 mm 6 m/s 744 mmHg 75%
    09:00 +6°C° 0 mm 7 m/s 744 mmHg 69%
    10:00 +7°C° 0 mm 8 m/s 743 mmHg 62%
    11:00 +7°C° 0.4 mm 9 m/s 742 mmHg 63%
    12:00 +7°C° 0.4 mm 9 m/s 741 mmHg 63%
    13:00 +8°C° 0.4 mm 10 m/s 740 mmHg 63%
    14:00 +8°C° 0.8 mm 10 m/s 739 mmHg 67%
    15:00 +7°C° 0.8 mm 10 m/s 738 mmHg 71%
    16:00 +7°C° 0.8 mm 10 m/s 737 mmHg 75%
    17:00 +8°C° 0.3 mm 10 m/s 736 mmHg 76%
    18:00 +8°C° 0.3 mm 10 m/s 735 mmHg 77%
    19:00 +9°C° 0.3 mm 11 m/s 735 mmHg 78%
    20:00 +9°C° 0.7 mm 11 m/s 734 mmHg 79%
    21:00 +9°C° 0.7 mm 10 m/s 734 mmHg 79%
    22:00 +9°C° 0.7 mm 10 m/s 734 mmHg 80%
    23:00 +9°C° 1 mm 10 m/s 733 mmHg 80%

    Mâine, 24 Octombrie, Miercuri

    Timp Temperatura Precipitaţii Vânt Presiune Umiditate
    00:00 +9°C° 1 mm 10 m/s 733 mmHg 80%
    01:00 +9°C° 1 mm 10 m/s 733 mmHg 80%
    02:00 +8°C° 0.6 mm 10 m/s 733 mmHg 78%
    03:00 +7°C° 0.6 mm 10 m/s 733 mmHg 77%
    04:00 +7°C° 0.6 mm 10 m/s 733 mmHg 75%
    05:00 +6°C° 0.2 mm 9 m/s 733 mmHg 74%
    06:00 +6°C° 0.2 mm 9 m/s 734 mmHg 73%
    07:00 +5°C° 0.2 mm 8 m/s 734 mmHg 72%
    08:00 +5°C° 0.1 mm 9 m/s 735 mmHg 67%
    09:00 +6°C° 0.1 mm 10 m/s 736 mmHg 63%
    10:00 +6°C° 0.1 mm 10 m/s 736 mmHg 58%
    11:00 +6°C° 0.1 mm 10 m/s 737 mmHg 56%
    12:00 +6°C° 0.1 mm 10 m/s 737 mmHg 55%
    13:00 +6°C° 0.1 mm 10 m/s 738 mmHg 53%
    14:00 +6°C° 0 mm 9 m/s 738 mmHg 53%
    15:00 +6°C° 0 mm 8 m/s 739 mmHg 54%
    16:00 +6°C° 0 mm 7 m/s 739 mmHg 54%
    17:00 +5°C° 0 mm 7 m/s 740 mmHg 57%
    18:00 +4°C° 0 mm 6 m/s 740 mmHg 60%
    19:00 +5°C° 0 mm 5 m/s 741 mmHg 63%
    20:00 +3°C° 0 mm 5 m/s 741 mmHg 66%
    21:00 +3°C° 0 mm 5 m/s 742 mmHg 69%
    22:00 +2°C° 0 mm 5 m/s 742 mmHg 71%
    23:00 +3°C° 0 mm 4 m/s 742 mmHg 74%

    Poimâine, 25 Octombrie, Joi

    Timp Temperatura Precipitaţii Vânt Presiune Umiditate
    00:00 +3°C° 0 mm 4 m/s 742 mmHg 76%
    01:00 +3°C° 0 mm 4 m/s 742 mmHg 78%
    02:00 +4°C° 0 mm 4 m/s 741 mmHg 79%
    03:00 +4°C° 0 mm 4 m/s 740 mmHg 80%
    04:00 +5°C° 0 mm 4 m/s 740 mmHg 80%
    05:00 +6°C° 0.4 mm 5 m/s 739 mmHg 83%
    06:00 +7°C° 0.4 mm 6 m/s 739 mmHg 85%
    07:00 +8°C° 0.4 mm 7 m/s 738 mmHg 87%
    08:00 +9°C° 0.1 mm 7 m/s 738 mmHg 85%
    09:00 +10°C° 0.1 mm 8 m/s 738 mmHg 82%
    10:00 +10°C° 0.1 mm 8 m/s 737 mmHg 79%
    11:00 +11°C° 0.1 mm 9 m/s 737 mmHg 78%
    12:00 +11°C° 0.1 mm 9 m/s 737 mmHg 76%
    13:00 +11°C° 0.1 mm 9 m/s 737 mmHg 74%
    14:00 +11°C° 0 mm 8 m/s 737 mmHg 76%
    15:00 +10°C° 0 mm 8 m/s 737 mmHg 77%
    16:00 +10°C° 0 mm 7 m/s 737 mmHg 78%
    17:00 +10°C° 0.1 mm 7 m/s 737 mmHg 79%
    18:00 +10°C° 0.1 mm 7 m/s 737 mmHg 80%
    19:00 +10°C° 0.1 mm 6 m/s 737 mmHg 81%
    20:00 +10°C° 0.2 mm 6 m/s 738 mmHg 82%
    21:00 +10°C° 0.2 mm 6 m/s 738 mmHg 83%
    22:00 +9°C° 0.2 mm 6 m/s 738 mmHg 84%
    23:00 +9°C° 0.2 mm 5 m/s 738 mmHg 84%

    26 Octombrie, Vineri

    Timp Temperatura Precipitaţii Vânt Presiune Umiditate
    00:00 +9°C° 0.2 mm 5 m/s 738 mmHg 84%
    01:00 +9°C° 0.2 mm 5 m/s 738 mmHg 85%
    02:00 +8°C° 0 mm 4 m/s 738 mmHg 86%
    03:00 +9°C° 0 mm 3 m/s 738 mmHg 87%
    04:00 +9°C° 0 mm 3 m/s 738 mmHg 88%
    05:00 +9°C° 0 mm 3 m/s 738 mmHg 89%
    06:00 +9°C° 0 mm 3 m/s 737 mmHg 89%
    07:00 +9°C° 0 mm 2 m/s 737 mmHg 90%
    08:00 +10°C° 0 mm 3 m/s 737 mmHg 85%
    09:00 +10°C° 0 mm 4 m/s 737 mmHg 81%
    10:00 +10°C° 0 mm 5 m/s 736 mmHg 76%
    11:00 +12°C° 0 mm 5 m/s 736 mmHg 72%
    12:00 +11°C° 0 mm 6 m/s 735 mmHg 69%
    13:00 +13°C° 0 mm 6 m/s 735 mmHg 65%
    14:00 +11°C° 0 mm 6 m/s 734 mmHg 66%
    15:00 +12°C° 0 mm 5 m/s 734 mmHg 67%
    16:00 +10°C° 0 mm 5 m/s 733 mmHg 68%
    17:00 +9°C° 0 mm 5 m/s 733 mmHg 70%
    18:00 +9°C° 0 mm 5 m/s 733 mmHg 72%
    19:00 +8°C° 0 mm 5 m/s 733 mmHg 73%
    20:00 +8°C° 0 mm 5 m/s 733 mmHg 74%
    21:00 +8°C° 0 mm 5 m/s 733 mmHg 74%
    22:00 +7°C° 0 mm 5 m/s 733 mmHg 74%
    23:00 +7°C° 0 mm 5 m/s 734 mmHg 73%

    27 Octombrie, Sâmbătă

    Timp Temperatura Precipitaţii Vânt Presiune Umiditate
    00:00 +5°C° 0 mm 6 m/s 734 mmHg 72%
    01:00 +5°C° 0 mm 6 m/s 734 mmHg 71%
    02:00 +5°C° 0 mm 5 m/s 734 mmHg 72%
    03:00 +5°C° 0 mm 5 m/s 735 mmHg 72%
    04:00 +3°C° 0 mm 5 m/s 735 mmHg 72%
    05:00 +3°C° 0 mm 5 m/s 735 mmHg 73%
    06:00 +3°C° 0 mm 5 m/s 735 mmHg 74%
    07:00 +2°C° 0 mm 5 m/s 736 mmHg 74%
    08:00 +3°C° 0 mm 5 m/s 736 mmHg 70%
    09:00 +5°C° 0 mm 5 m/s 736 mmHg 66%
    10:00 +6°C° 0 mm 5 m/s 736 mmHg 62%
    11:00 +7°C° 0 mm 5 m/s 736 mmHg 59%
    12:00 +7°C° 0 mm 4 m/s 736 mmHg 57%
    13:00 +8°C° 0 mm 4 m/s 736 mmHg 54%
    14:00 +8°C° 0 mm 3 m/s 736 mmHg 56%
    15:00 +8°C° 0 mm 2 m/s 736 mmHg 59%
    16:00 +8°C° 0 mm 2 m/s 737 mmHg 61%
    17:00 +8°C° 0 mm 1 m/s 737 mmHg 63%
    18:00 +8°C° 0 mm 1 m/s 737 mmHg 65%
    19:00 +7°C° 0 mm 1 m/s 737 mmHg 68%
    20:00 +7°C° 0 mm 1 m/s 738 mmHg 69%
    21:00 +6°C° 0 mm 0 m/s 738 mmHg 70%
    22:00 +5°C° 0 mm 0 m/s 738 mmHg 71%
    23:00 +5°C° 0 mm 0 m/s 738 mmHg 72%

    28 Octombrie, Duminică

    Timp Temperatura Precipitaţii Vânt Presiune Umiditate
    00:00 +6°C° 0 mm 1 m/s 738 mmHg 74%
    01:00 +6°C° 0 mm 1 m/s 738 mmHg 75%
    02:00 +6°C° 0.1 mm 1 m/s 737 mmHg 77%
    03:00 +5°C° 0.1 mm 2 m/s 737 mmHg 78%
    04:00 +5°C° 0.1 mm 2 m/s 737 mmHg 80%
    05:00 +5°C° 0.1 mm 2 m/s 737 mmHg 81%
    06:00 +4°C° 0.1 mm 3 m/s 737 mmHg 82%
    07:00 +4°C° 0.1 mm 3 m/s 737 mmHg 83%
    08:00 +4°C° 0.6 mm 4 m/s 737 mmHg 82%
    09:00 +3°C° 0.6 mm 5 m/s 737 mmHg 82%
    10:00 +3°C° 0.6 mm 5 m/s 737 mmHg 81%
    11:00 +3°C° 1.3 mm 6 m/s 737 mmHg 82%
    12:00 +3°C° 1.3 mm 6 m/s 737 mmHg 82%
    13:00 +3°C° 1.3 mm 7 m/s 736 mmHg 83%
    14:00 +2°C° 1.3 mm 7 m/s 736 mmHg 84%
    15:00 +2°C° 1.3 mm 7 m/s 736 mmHg 84%
    16:00 +2°C° 1.3 mm 7 m/s 736 mmHg 85%
    17:00 +2°C° 0.4 mm 7 m/s 736 mmHg 86%
    18:00 +2°C° 0.4 mm 7 m/s 736 mmHg 86%
    19:00 +2°C° 0.4 mm 7 m/s 736 mmHg 87%
    20:00 +2°C° 1.3 mm 7 m/s 736 mmHg 88%
    21:00 +1°C° 1.3 mm 6 m/s 735 mmHg 89%
    22:00 +1°C° 1.3 mm 6 m/s 735 mmHg 90%
    23:00 +1°C° 2.4 mm 6 m/s 735 mmHg 90%

    29 Octombrie, Luni

    Timp Temperatura Precipitaţii Vânt Presiune Umiditate
    00:00 +1°C° 2.4 mm 6 m/s 734 mmHg 91%
    01:00 +1°C° 2.4 mm 6 m/s 734 mmHg 91%
    02:00 +1°C° 1.8 mm 6 m/s 733 mmHg 91%
    03:00 0°C° 1.8 mm 7 m/s 733 mmHg 91%
    04:00 0°C° 1.8 mm 7 m/s 732 mmHg 91%
    05:00 +1°C° 1.3 mm 6 m/s 732 mmHg 91%
    06:00 +1°C° 1.3 mm 6 m/s 732 mmHg 91%
    07:00 +1°C° 1.3 mm 6 m/s 732 mmHg 92%
    08:00 +1°C° 1.5 mm 6 m/s 731 mmHg 92%
    09:00 +1°C° 1.5 mm 6 m/s 731 mmHg 92%
    10:00 +1°C° 1.5 mm 6 m/s 731 mmHg 92%
    11:00 +1°C° 1.5 mm 5 m/s 731 mmHg 93%
    12:00 +1°C° 1.5 mm 5 m/s 731 mmHg 93%
    13:00 +1°C° 1.5 mm 5 m/s 731 mmHg 93%
    14:00 +1°C° 1 mm 4 m/s 730 mmHg 94%
    15:00 +1°C° 1 mm 4 m/s 730 mmHg 94%
    16:00 +3°C° 1 mm 4 m/s 730 mmHg 94%
    17:00 +3°C° 0.6 mm 3 m/s 730 mmHg 94%
    18:00 +3°C° 0.6 mm 3 m/s 730 mmHg 95%
    19:00 +3°C° 0.6 mm 3 m/s 730 mmHg 95%
    20:00 +4°C° 0.1 mm 2 m/s 729 mmHg 96%
    21:00 +4°C° 0.1 mm 2 m/s 729 mmHg 96%
    22:00 +4°C° 0.1 mm 2 m/s 729 mmHg 97%
    23:00 +5°C° 0.1 mm 2 m/s 729 mmHg 97%
    Arată mai mult